Tacoma, WA

7:34 AM PST on February 23, 2018 (GMT -0800)
McChord Air Force Base

Weather History for KTCM - December, 2011

Change the Weather History Date:

Monday, December 12, 2011

  Actual Average Record
Temperature  
Mean Temperature 31 °F -  
Max Temperature 40 °F 45 °F 61 °F (1960)
Min Temperature 22 °F 33 °F 12 °F (1972)
Degree Days  
Heating Degree Days 34    
Moisture  
Dew Point 27 °F    
Average Humidity 97    
Maximum Humidity 100    
Minimum Humidity 63    
Precipitation  
Precipitation 0.00 in - - ()
Sea Level Pressure  
Sea Level Pressure 30.23 in    
Wind  
Wind Speed 0 mph (East)    
Max Wind Speed 8 mph    
Max Gust Speed -    
Visibility 3 miles    
Events Fog    
Averages and records for this station are not official NWS values.
T = Trace of Precipitation, MM = Missing Value Source: NWS Daily Summary

Daily Weather History Graph

Daily Weather History Graph

Search for Another Location

Airport or City:

Trip Planner

Search our weather history database for the weather conditions in past years. The results will help you decide how hot, cold, wet, or windy it might be!

Date:

Astronomy

Dec. 12, 2011 Rise Set
Actual Time 7:46 AM PST 4:20 PM PST
Civil Twilight 7:11 AM PST 4:55 PM PST
Nautical Twilight 6:32 AM PST 5:34 PM PST
Astronomical Twilight 5:55 AM PST 6:11 PM PST
Moon 6:40 PM PST (12/12) 9:19 AM PST (12/12)
Length of Visible Light 9h 44m
Length of Day
8h 33m
Waning Gibbous, 95% of the Moon is Illuminated
Dec 12
Waning Gibbous
Dec 17
Last Quarter
Dec 24
New
Dec 31
First Quarter
Jan 8
Full

Hourly Weather History & Observations

Time (PST) Temp. Windchill Dew Point Humidity Pressure Visibility Wind Dir Wind Speed Gust Speed Precip Events Conditions
12:14 AM 35.6 °F - 35.6 °F 100% 30.24 in 10.0 mi Calm Calm - N/A   Overcast
12:55 AM 34.7 °F - 34.5 °F 99% 30.24 in 8.0 mi Calm Calm - N/A   Overcast
1:18 AM 33.8 °F - 33.8 °F 100% 30.24 in 9.0 mi Calm Calm - N/A   Overcast
1:19 AM 33.8 °F - 33.8 °F 100% 30.24 in 9.0 mi Calm Calm - N/A   Overcast
1:20 AM 33.8 °F - 33.8 °F 100% 30.24 in 9.0 mi Calm Calm - N/A   Overcast
1:23 AM 33.8 °F - 33.8 °F 100% 30.23 in 10.0 mi Calm Calm - N/A   Overcast
1:55 AM 31.8 °F 28.5 °F 31.6 °F 99% 30.25 in 6.0 mi SW 3.5 mph - N/A   Partly Cloudy
2:36 AM 28.4 °F - 28.4 °F 100% 30.25 in 2.5 mi Calm Calm - N/A   Partly Cloudy
2:37 AM 28.4 °F - 28.4 °F 100% 30.25 in 2.0 mi Calm Calm - N/A   Partly Cloudy
2:39 AM 28.4 °F - 28.4 °F 100% 30.25 in 1.5 mi Calm Calm - N/A   Partly Cloudy
2:40 AM 28.4 °F - 28.4 °F 100% 30.25 in 1.2 mi Calm Calm - N/A   Partly Cloudy
2:41 AM 28.4 °F - 28.4 °F 100% 30.25 in 1.0 mi Calm Calm - N/A   Partly Cloudy
2:42 AM 28.4 °F - 28.4 °F 100% 30.25 in 0.8 mi Calm Calm - N/A   Partly Cloudy
2:44 AM 30.2 °F - 28.4 °F 93% 30.25 in 0.8 mi Calm Calm - N/A   Partly Cloudy
2:45 AM 30.2 °F - 28.4 °F 93% 30.25 in 0.5 mi Calm Calm - N/A Fog Light Freezing Fog
2:48 AM 28.4 °F - 28.4 °F 100% 30.25 in 0.5 mi Calm Calm - N/A Fog Light Freezing Fog
2:49 AM 28.4 °F - 28.4 °F 100% 30.25 in 0.5 mi Calm Calm - N/A Fog Light Freezing Fog
2:51 AM 28.4 °F - 28.4 °F 100% 30.25 in 0.5 mi Calm Calm - N/A Fog Light Freezing Fog
2:52 AM 28.4 °F - 28.4 °F 100% 30.25 in 0.5 mi Calm Calm - N/A Fog Light Freezing Fog
2:54 AM 28.4 °F - 28.4 °F 100% 30.25 in 0.5 mi Calm Calm - N/A Fog Light Freezing Fog
2:55 AM 28.6 °F - 28.2 °F 99% 30.25 in 0.5 mi Calm Calm - N/A Fog Light Freezing Fog
3:01 AM 28.4 °F - 28.4 °F 100% 30.25 in 0.8 mi Calm Calm - N/A   Clear
3:02 AM 28.4 °F - 28.4 °F 100% 30.25 in 0.5 mi Calm Calm - N/A Fog Light Freezing Fog
3:04 AM 28.4 °F - 28.4 °F 100% 30.24 in 0.5 mi Calm Calm - N/A Fog Light Freezing Fog
3:13 AM 26.6 °F - 26.6 °F 100% 30.24 in 0.5 mi Calm Calm - N/A Fog Light Freezing Fog
3:14 AM 26.6 °F - 26.6 °F 100% 30.24 in 0.2 mi Calm Calm - N/A Fog Light Freezing Fog
3:15 AM 26.6 °F - 26.6 °F 100% 30.24 in 0.5 mi Calm Calm - N/A Fog Light Freezing Fog
3:17 AM 26.6 °F 22.6 °F 26.6 °F 100% 30.25 in 0.5 mi South 3.5 mph - N/A Fog Light Freezing Fog
3:18 AM 26.6 °F - 26.6 °F 100% 30.25 in 0.5 mi Calm Calm - N/A Fog Light Freezing Fog
3:24 AM 26.6 °F - 26.6 °F 100% 30.25 in 0.5 mi Calm Calm - N/A Fog Light Freezing Fog
3:25 AM 26.6 °F - 26.6 °F 100% 30.25 in 0.8 mi Calm Calm - N/A   Clear
3:35 AM 26.6 °F - 26.6 °F 100% 30.24 in 0.5 mi Calm Calm - N/A Fog Light Freezing Fog
3:42 AM 24.8 °F - 24.8 °F 100% 30.24 in 0.8 mi Calm Calm - N/A   Clear
3:51 AM 24.8 °F - 24.8 °F 100% 30.24 in 0.5 mi Calm Calm - N/A Fog Light Freezing Fog
3:53 AM 24.8 °F - 24.8 °F 100% 30.24 in 0.8 mi Calm Calm - N/A   Clear
3:54 AM 24.8 °F - 24.8 °F 100% 30.23 in 0.8 mi Calm Calm - N/A   Clear
3:55 AM 25.3 °F - 25.2 °F 99% 30.24 in 0.8 mi Calm Calm - N/A   Clear
3:57 AM 24.8 °F - 24.8 °F 100% 30.24 in 1.0 mi Calm Calm - N/A   Clear
3:58 AM 24.8 °F - 24.8 °F 100% 30.24 in 1.2 mi Calm Calm - N/A   Clear
4:00 AM 26.6 °F - 26.6 °F 100% 30.24 in 1.8 mi Calm Calm - N/A   Clear
4:01 AM 26.6 °F - 26.6 °F 100% 30.23 in 2.5 mi Calm Calm - N/A   Clear
4:02 AM 26.6 °F - 26.6 °F 100% 30.23 in 3.0 mi Calm Calm - N/A   Clear
4:13 AM 26.6 °F - 26.6 °F 100% 30.23 in 2.0 mi Calm Calm - N/A   Clear
4:14 AM 26.6 °F - 26.6 °F 100% 30.23 in 1.8 mi Calm Calm - N/A   Clear
4:15 AM 26.6 °F - 26.6 °F 100% 30.24 in 1.5 mi Calm Calm - N/A   Clear
4:18 AM 26.6 °F - 26.6 °F 100% 30.24 in 1.0 mi Calm Calm - N/A   Clear
4:19 AM 26.6 °F - 26.6 °F 100% 30.24 in 0.8 mi Calm Calm - N/A   Clear
4:23 AM 26.6 °F - 24.8 °F 93% 30.24 in 0.5 mi Calm Calm - N/A Fog Light Freezing Fog
4:26 AM 26.6 °F - 26.6 °F 100% 30.24 in 0.5 mi Calm Calm - N/A Fog Light Freezing Fog
4:29 AM 26.6 °F - 26.6 °F 100% 30.24 in 0.5 mi Calm Calm - N/A Fog Light Freezing Fog
4:44 AM 26.6 °F - 26.6 °F 100% 30.25 in 0.5 mi Calm Calm - N/A Fog Light Freezing Fog
4:45 AM 26.6 °F - 26.6 °F 100% 30.25 in 0.8 mi Calm Calm - N/A   Clear
4:47 AM 26.6 °F - 26.6 °F 100% 30.25 in 1.0 mi Calm Calm - N/A   Clear
4:48 AM 26.6 °F - 26.6 °F 100% 30.25 in 1.2 mi Calm Calm - N/A   Clear
4:49 AM 26.6 °F - 26.6 °F 100% 30.25 in 1.8 mi Calm Calm - N/A   Clear
4:50 AM 26.6 °F - 26.6 °F 100% 30.25 in 2.5 mi Calm Calm - N/A   Clear
4:51 AM 26.6 °F - 26.6 °F 100% 30.25 in 3.0 mi Calm Calm - N/A   Clear
4:55 AM 26.8 °F - 26.6 °F 99% 30.25 in 8.0 mi Calm Calm - N/A   Clear
5:12 AM 24.8 °F - 24.8 °F 100% 30.25 in 2.5 mi Calm Calm - N/A   Clear
5:13 AM 26.6 °F - 24.8 °F 93% 30.25 in 2.0 mi Calm Calm - N/A   Clear
5:14 AM 26.6 °F - 26.6 °F 100% 30.25 in 1.5 mi Calm Calm - N/A   Clear
5:16 AM 26.6 °F - 26.6 °F 100% 30.25 in 1.0 mi Calm Calm - N/A   Clear
5:18 AM 26.6 °F - 26.6 °F 100% 30.25 in 0.8 mi Calm Calm - N/A   Clear
5:19 AM 26.6 °F - 24.8 °F 93% 30.25 in 0.8 mi Calm Calm - N/A   Clear
5:20 AM 26.6 °F - 24.8 °F 93% 30.25 in 0.8 mi Calm Calm - N/A   Clear
5:21 AM 24.8 °F - 24.8 °F 100% 30.25 in 1.0 mi Calm Calm - N/A   Clear
5:24 AM 24.8 °F - 24.8 °F 100% 30.26 in 1.2 mi Calm Calm - N/A   Clear
5:26 AM 24.8 °F - 24.8 °F 100% 30.26 in 2.0 mi Calm Calm - N/A   Clear
5:27 AM 24.8 °F - 24.8 °F 100% 30.26 in 2.5 mi Calm Calm - N/A   Clear
5:28 AM 24.8 °F - 24.8 °F 100% 30.26 in 3.0 mi Calm Calm - N/A   Clear
5:30 AM 24.8 °F - 24.8 °F 100% 30.26 in 2.5 mi Calm Calm - N/A   Clear
5:31 AM 24.8 °F - 24.8 °F 100% 30.26 in 2.0 mi Calm Calm - N/A   Clear
5:38 AM 26.6 °F - 24.8 °F 93% 30.26 in 2.5 mi Calm Calm - N/A   Clear
5:39 AM 26.6 °F - 24.8 °F 93% 30.26 in 3.0 mi Calm Calm - N/A   Clear
5:55 AM 24.8 °F - 24.3 °F 98% 30.27 in 9.0 mi Calm Calm - N/A   Clear
6:55 AM 25.2 °F 20.9 °F 24.8 °F 99% 30.26 in 9.0 mi ESE 3.5 mph - N/A   Clear
7:55 AM 26.2 °F - 26.1 °F 99% 30.27 in 9.0 mi Calm Calm - N/A   Clear
8:15 AM 24.8 °F - 23.0 °F 93% 30.27 in 2.5 mi Calm Calm - N/A   Clear
8:21 AM 24.8 °F - 23.0 °F 93% 30.27 in 2.0 mi Calm Calm - N/A   Clear
8:22 AM 24.8 °F - 24.8 °F 100% 30.27 in 1.8 mi Calm Calm - N/A   Clear
8:23 AM 24.8 °F - 24.8 °F 100% 30.27 in 1.5 mi Calm Calm - N/A   Clear
8:30 AM 24.8 °F - 24.8 °F 100% 30.27 in 1.8 mi Calm Calm - N/A   Clear
8:31 AM 24.8 °F - 24.8 °F 100% 30.27 in 2.0 mi Calm Calm - N/A   Clear
8:32 AM 24.8 °F - 24.8 °F 100% 30.27 in 2.5 mi Calm Calm - N/A   Clear
8:33 AM 24.8 °F - 24.8 °F 100% 30.27 in 3.0 mi Calm Calm - N/A   Clear
8:55 AM 26.6 °F - 26.4 °F 99% 30.27 in 8.0 mi Calm Calm - N/A   Clear
9:55 AM 32.2 °F - 32.0 °F 99% 30.28 in 10.0 mi Calm Calm - N/A   Clear
10:55 AM 37.4 °F 32.8 °F 30.9 °F 77% 30.27 in 10.0 mi NNE 5.8 mph - N/A   Clear
11:55 AM 39.2 °F 34.2 °F 31.1 °F 73% 30.24 in 10.0 mi NNE 6.9 mph - N/A   Clear
12:55 PM 40.6 °F 37.5 °F 28.9 °F 63% 30.21 in 10.0 mi Variable 4.6 mph - N/A   Clear
1:55 PM 40.1 °F 34.7 °F 29.3 °F 65% 30.19 in 10.0 mi North 8.1 mph - N/A   Clear
2:55 PM 39.7 °F 34.9 °F 30.7 °F 70% 30.18 in 10.0 mi North 6.9 mph - N/A   Clear
3:55 PM 38.5 °F 35.0 °F 28.4 °F 67% 30.17 in 10.0 mi NE 4.6 mph - N/A   Clear
4:55 PM 35.8 °F - 27.5 °F 72% 30.17 in 10.0 mi Calm Calm - N/A   Clear
5:55 PM 27.0 °F 23.0 °F 25.3 °F 94% 30.17 in 10.0 mi South 3.5 mph - N/A   Clear
6:55 PM 26.6 °F - 26.1 °F 98% 30.14 in 10.0 mi Calm Calm - N/A   Clear
7:55 PM 27.9 °F - 27.5 °F 99% 30.14 in 10.0 mi Calm Calm - N/A   Clear
8:45 PM 24.8 °F 20.5 °F 24.8 °F 100% 30.12 in 2.0 mi South 3.5 mph - N/A   Clear
8:47 PM 24.8 °F 20.5 °F 24.8 °F 100% 30.12 in 1.8 mi SSE 3.5 mph - N/A   Clear
8:52 PM 23.0 °F - 23.0 °F 100% 30.12 in 2.0 mi Calm Calm - N/A   Clear
8:54 PM 23.0 °F - 23.0 °F 100% 30.12 in 3.0 mi Calm Calm - N/A   Clear
8:55 PM 23.5 °F - 23.0 °F 98% 30.12 in 4.0 mi Calm Calm - N/A   Clear
9:55 PM 22.8 °F - 22.3 °F 98% 30.11 in 9.0 mi Calm Calm - N/A   Clear
10:55 PM 22.3 °F - 21.7 °F 98% 30.11 in 10.0 mi Calm Calm - N/A   Clear
11:55 PM 24.3 °F - 23.7 °F 98% 30.11 in 10.0 mi Calm Calm - N/A   Clear